sat.trackr.live / text

‹ back to catalog

2025-313Z

NORAD 67271 · 2025-313Z

PAYLOAD ACTIVE UNKNOWN

§ Identity

Operator
Country
TBD
Launch date
2025-12-28
Launch site
VOSTO
Launch vehicle
Mass (kg)
RCS (m²)

External: N2YO · Heavens-Above · Gunter

§ Orbital elements

Epoch: 2026-05-25T04:55:01.429824Z

Period
94.65 min
Inclination
97.3942°
Eccentricity
0.0016623
Mean motion
15.21379811 rev/d
Perigee alt
490.2 km
Apogee alt
513.1 km
Semi-major
6,879.8 km
B*
1.8809e-4
RAAN
220.0514°
Arg perigee
84.0538°
Mean anomaly
276.2592°
Rev number
2,244

§ Raw data

2025-313Z1 67271U 25313Z   26145.20487766  .00004163  00000+0  18809-3 0  99972 67271  97.3942 220.0514 0016623  84.0538 276.2592 15.21379811 22442

JSON: /api/v1/satellites/67271 · /tle

For live sub-satellite position, see the globe view (requires WebGL).

§ Visibility from observer

Set your observer location to see the next 7 days of passes ≥ 10°. The values pass through the URL so the page stays shareable.

No JS? Fill the form by hand. The geolocation button needs JavaScript.

§ Radio — SatNOGS DB

ModeDescriptionDownlinkUplink
FSK Mode U 437.200 MHz

1 transmitter · refreshed weekly from db.satnogs.org